Location: Czekanka
(50.4925°N, 19.2643°E)
Time: 08:14:05
(UTC+00:00)

SL-16 R/B - Pass Details

Date: 18 September 2024
Orbit: 842 x 846 km, 71.0° (Epoch: 05 October)

Event Time Altitude Azimuth Distance (km) Brightness Sun altitude
Rises 17:34:20 0° 167° (SSE) 3,392 5.1 -7.9°
Reaches altitude 10° 17:37:11 10° 154° (SSE) 2,461 4.3 -8.4°
Maximum altitude 17:41:36 24° 102° (ESE) 1,684 3.2 -9.1°
Drops below altitude 10° 17:46:01 10° 51° (NE) 2,473 4.3 -9.7°
Sets 17:48:53 0° 38° (NE) 3,413 5.1 -10.2°
